owner,sensor,date,latitude,longitude,sea_surface_height_above_sea_level,qcFlag 
TCOON,ioos:station:TCOON:013:1,2019-07-01T00:24:00Z,27.4847,-97.3181,0.773,11111222 
TCOON,ioos:station:TCOON:013:1,2019-07-01T01:24:00Z,27.4847,-97.3181,0.769,11111222 
TCOON,ioos:station:TCOON:013:1,2019-07-01T02:24:00Z,27.4847,-97.3181,0.763,11111222 
TCOON,ioos:station:TCOON:013:1,2019-07-01T03:24:00Z,27.4847,-97.3181,0.755,11111222 
TCOON,ioos:station:TCOON:013:1,2019-07-01T04:24:00Z,27.4847,-97.3181,0.769,11111222 
TCOON,ioos:station:TCOON:013:1,2019-07-01T05:24:00Z,27.4847,-97.3181,0.753,11111222 
TCOON,ioos:station:TCOON:013:1,2019-07-01T06:24:00Z,27.4847,-97.3181,0.753,11111222 
TCOON,ioos:station:TCOON:013:1,2019-07-01T07:24:00Z,27.4847,-97.3181,0.749,11111222 
TCOON,ioos:station:TCOON:013:1,2019-07-01T08:24:00Z,27.4847,-97.3181,0.751,11111222 
TCOON,ioos:station:TCOON:013:1,2019-07-01T09:24:00Z,27.4847,-97.3181,0.752,11111222 
TCOON,ioos:station:TCOON:013:1,2019-07-01T10:24:00Z,27.4847,-97.3181,0.755,11111222 
TCOON,ioos:station:TCOON:013:1,2019-07-01T11:24:00Z,27.4847,-97.3181,0.755,11111222 
TCOON,ioos:station:TCOON:013:1,2019-07-01T12:30:00Z,27.4847,-97.3181,0.758,11111222 
TCOON,ioos:station:TCOON:013:1,2019-07-01T13:30:00Z,27.4847,-97.3181,0.763,11111222 
TCOON,ioos:station:TCOON:013:1,2019-07-01T15:48:00Z,27.4847,-97.3181,0.781,11111222 
TCOON,ioos:station:TCOON:013:1,2019-07-01T16:30:00Z,27.4847,-97.3181,0.791,11111222 
TCOON,ioos:station:TCOON:013:1,2019-07-01T17:30:00Z,27.4847,-97.3181,0.801,11111222 
TCOON,ioos:station:TCOON:013:1,2019-07-01T18:30:00Z,27.4847,-97.3181,0.809,11111222 
TCOON,ioos:station:TCOON:013:1,2019-07-01T19:30:00Z,27.4847,-97.3181,0.807,11111222 
TCOON,ioos:station:TCOON:013:1,2019-07-01T20:30:00Z,27.4847,-97.3181,0.806,11111222 
TCOON,ioos:station:TCOON:013:1,2019-07-01T21:30:00Z,27.4847,-97.3181,0.806,11111222 
TCOON,ioos:station:TCOON:013:1,2019-07-01T22:30:00Z,27.4847,-97.3181,0.803,11111222 
TCOON,ioos:station:TCOON:013:1,2019-07-01T23:24:00Z,27.4847,-97.3181,0.799,11111222 
TCOON,ioos:station:TCOON:013:1,2019-07-02T00:24:00Z,27.4847,-97.3181,0.799,11111222 
TCOON,ioos:station:TCOON:013:1,2019-07-02T01:24:00Z,27.4847,-97.3181,0.793,11111222 
TCOON,ioos:station:TCOON:013:1,2019-07-02T02:24:00Z,27.4847,-97.3181,0.789,11111222 
TCOON,ioos:station:TCOON:013:1,2019-07-02T03:24:00Z,27.4847,-97.3181,0.785,11111222 
TCOON,ioos:station:TCOON:013:1,2019-07-02T04:24:00Z,27.4847,-97.3181,0.78,11111222 
TCOON,ioos:station:TCOON:013:1,2019-07-02T05:24:00Z,27.4847,-97.3181,0.778,11111222 
TCOON,ioos:station:TCOON:013:1,2019-07-02T06:24:00Z,27.4847,-97.3181,0.774,11111222 
TCOON,ioos:station:TCOON:013:1,2019-07-02T07:24:00Z,27.4847,-97.3181,0.773,11111222 
TCOON,ioos:station:TCOON:013:1,2019-07-02T08:24:00Z,27.4847,-97.3181,0.772,11111222 
TCOON,ioos:station:TCOON:013:1,2019-07-02T09:24:00Z,27.4847,-97.3181,0.771,11111222 
TCOON,ioos:station:TCOON:013:1,2019-07-02T10:24:00Z,27.4847,-97.3181,0.77,11111222 
TCOON,ioos:station:TCOON:013:1,2019-07-02T11:24:00Z,27.4847,-97.3181,0.769,11111222 
TCOON,ioos:station:TCOON:013:1,2019-07-02T12:24:00Z,27.4847,-97.3181,0.769,11111222 
TCOON,ioos:station:TCOON:013:1,2019-07-02T13:30:00Z,27.4847,-97.3181,0.769,11111222 
TCOON,ioos:station:TCOON:013:1,2019-07-02T14:30:00Z,27.4847,-97.3181,0.777,11111222 
TCOON,ioos:station:TCOON:013:1,2019-07-02T15:30:00Z,27.4847,-97.3181,0.782,11111222 
TCOON,ioos:station:TCOON:013:1,2019-07-02T16:30:00Z,27.4847,-97.3181,0.792,11111222 
TCOON,ioos:station:TCOON:013:1,2019-07-02T17:30:00Z,27.4847,-97.3181,0.802,11111222 
TCOON,ioos:station:TCOON:013:1,2019-07-02T18:30:00Z,27.4847,-97.3181,0.807,11111222 
TCOON,ioos:station:TCOON:013:1,2019-07-02T19:30:00Z,27.4847,-97.3181,0.809,11111222 
TCOON,ioos:station:TCOON:013:1,2019-07-02T20:30:00Z,27.4847,-97.3181,0.817,11111222 
TCOON,ioos:station:TCOON:013:1,2019-07-02T21:30:00Z,27.4847,-97.3181,0.82,11111222 
TCOON,ioos:station:TCOON:013:1,2019-07-02T22:30:00Z,27.4847,-97.3181,0.822,11111222 
TCOON,ioos:station:TCOON:013:1,2019-07-02T23:24:00Z,27.4847,-97.3181,0.825,11111222 
TCOON,ioos:station:TCOON:013:1,2019-07-03T00:24:00Z,27.4847,-97.3181,0.816,11111222 
TCOON,ioos:station:TCOON:013:1,2019-07-03T01:24:00Z,27.4847,-97.3181,0.818,11111222 
TCOON,ioos:station:TCOON:013:1,2019-07-03T02:24:00Z,27.4847,-97.3181,0.81,11111222 
TCOON,ioos:station:TCOON:013:1,2019-07-03T03:24:00Z,27.4847,-97.3181,0.803,11111222 
TCOON,ioos:station:TCOON:013:1,2019-07-03T04:24:00Z,27.4847,-97.3181,0.798,11111222 
TCOON,ioos:station:TCOON:013:1,2019-07-03T05:24:00Z,27.4847,-97.3181,0.794,11111222 
TCOON,ioos:station:TCOON:013:1,2019-07-03T06:24:00Z,27.4847,-97.3181,0.791,11111222 
TCOON,ioos:station:TCOON:013:1,2019-07-03T07:24:00Z,27.4847,-97.3181,0.788,11111222 
TCOON,ioos:station:TCOON:013:1,2019-07-03T08:24:00Z,27.4847,-97.3181,0.791,11111222 
TCOON,ioos:station:TCOON:013:1,2019-07-03T09:24:00Z,27.4847,-97.3181,0.791,11111222 
TCOON,ioos:station:TCOON:013:1,2019-07-03T10:30:00Z,27.4847,-97.3181,0.789,11111222 
TCOON,ioos:station:TCOON:013:1,2019-07-03T11:24:00Z,27.4847,-97.3181,0.788,11111222 
TCOON,ioos:station:TCOON:013:1,2019-07-03T12:24:00Z,27.4847,-97.3181,0.795,11111222 
TCOON,ioos:station:TCOON:013:1,2019-07-03T13:24:00Z,27.4847,-97.3181,0.788,11111222 
TCOON,ioos:station:TCOON:013:1,2019-07-03T14:30:00Z,27.4847,-97.3181,0.79,11111222 
TCOON,ioos:station:TCOON:013:1,2019-07-03T15:30:00Z,27.4847,-97.3181,0.794,11111222 
TCOON,ioos:station:TCOON:013:1,2019-07-03T16:30:00Z,27.4847,-97.3181,0.796,11111222 
TCOON,ioos:station:TCOON:013:1,2019-07-03T17:30:00Z,27.4847,-97.3181,0.798,11111222 
TCOON,ioos:station:TCOON:013:1,2019-07-03T18:30:00Z,27.4847,-97.3181,0.806,11111222 
TCOON,ioos:station:TCOON:013:1,2019-07-03T19:30:00Z,27.4847,-97.3181,0.813,11111222 
TCOON,ioos:station:TCOON:013:1,2019-07-03T20:30:00Z,27.4847,-97.3181,0.816,11111222 
TCOON,ioos:station:TCOON:013:1,2019-07-03T21:30:00Z,27.4847,-97.3181,0.815,11111222 
TCOON,ioos:station:TCOON:013:1,2019-07-03T22:30:00Z,27.4847,-97.3181,0.819,11111222 
TCOON,ioos:station:TCOON:013:1,2019-07-03T23:24:00Z,27.4847,-97.3181,0.822,11111222 
TCOON,ioos:station:TCOON:013:1,2019-07-04T00:24:00Z,27.4847,-97.3181,0.82,11111222 
TCOON,ioos:station:TCOON:013:1,2019-07-04T01:24:00Z,27.4847,-97.3181,0.813,11111222 
TCOON,ioos:station:TCOON:013:1,2019-07-04T02:24:00Z,27.4847,-97.3181,0.807,11111222 
TCOON,ioos:station:TCOON:013:1,2019-07-04T03:24:00Z,27.4847,-97.3181,0.802,11111222 
TCOON,ioos:station:TCOON:013:1,2019-07-04T04:24:00Z,27.4847,-97.3181,0.789,11111222 
TCOON,ioos:station:TCOON:013:1,2019-07-04T05:24:00Z,27.4847,-97.3181,0.793,11111222 
TCOON,ioos:station:TCOON:013:1,2019-07-04T06:24:00Z,27.4847,-97.3181,0.791,11111222 
TCOON,ioos:station:TCOON:013:1,2019-07-04T07:24:00Z,27.4847,-97.3181,0.791,11111222 
TCOON,ioos:station:TCOON:013:1,2019-07-04T08:24:00Z,27.4847,-97.3181,0.787,11111222 
TCOON,ioos:station:TCOON:013:1,2019-07-04T09:24:00Z,27.4847,-97.3181,0.784,11111222 
TCOON,ioos:station:TCOON:013:1,2019-07-04T10:24:00Z,27.4847,-97.3181,0.78,11111222 
TCOON,ioos:station:TCOON:013:1,2019-07-04T11:24:00Z,27.4847,-97.3181,0.777,11111222 
TCOON,ioos:station:TCOON:013:1,2019-07-04T12:24:00Z,27.4847,-97.3181,0.771,11111222 
TCOON,ioos:station:TCOON:013:1,2019-07-04T13:24:00Z,27.4847,-97.3181,0.769,11111222 
TCOON,ioos:station:TCOON:013:1,2019-07-04T14:24:00Z,27.4847,-97.3181,0.77,11111222 
TCOON,ioos:station:TCOON:013:1,2019-07-04T15:24:00Z,27.4847,-97.3181,0.769,11111222 
TCOON,ioos:station:TCOON:013:1,2019-07-04T16:24:00Z,27.4847,-97.3181,0.771,11111222 
TCOON,ioos:station:TCOON:013:1,2019-07-04T17:24:00Z,27.4847,-97.3181,0.772,11111222 
TCOON,ioos:station:TCOON:013:1,2019-07-04T18:24:00Z,27.4847,-97.3181,0.775,11111222 
TCOON,ioos:station:TCOON:013:1,2019-07-04T19:24:00Z,27.4847,-97.3181,0.776,11111222 
TCOON,ioos:station:TCOON:013:1,2019-07-04T20:30:00Z,27.4847,-97.3181,0.78,11111222 
TCOON,ioos:station:TCOON:013:1,2019-07-04T21:30:00Z,27.4847,-97.3181,0.783,11111222 
TCOON,ioos:station:TCOON:013:1,2019-07-04T22:30:00Z,27.4847,-97.3181,0.782,11111222 
TCOON,ioos:station:TCOON:013:1,2019-07-04T23:24:00Z,27.4847,-97.3181,0.781,11111222 
TCOON,ioos:station:TCOON:013:1,2019-07-05T00:24:00Z,27.4847,-97.3181,0.778,11111222 
TCOON,ioos:station:TCOON:013:1,2019-07-05T01:24:00Z,27.4847,-97.3181,0.781,11111222 
TCOON,ioos:station:TCOON:013:1,2019-07-05T02:24:00Z,27.4847,-97.3181,0.77,11111222 
TCOON,ioos:station:TCOON:013:1,2019-07-05T03:24:00Z,27.4847,-97.3181,0.766,11111222 
TCOON,ioos:station:TCOON:013:1,2019-07-05T04:24:00Z,27.4847,-97.3181,0.765,11111222 
TCOON,ioos:station:TCOON:013:1,2019-07-05T05:36:00Z,27.4847,-97.3181,0.764,11111222 
TCOON,ioos:station:TCOON:013:1,2019-07-05T06:24:00Z,27.4847,-97.3181,0.761,11111222 
TCOON,ioos:station:TCOON:013:1,2019-07-05T07:24:00Z,27.4847,-97.3181,0.759,11111222 
TCOON,ioos:station:TCOON:013:1,2019-07-05T08:24:00Z,27.4847,-97.3181,0.758,11111222 
TCOON,ioos:station:TCOON:013:1,2019-07-05T09:24:00Z,27.4847,-97.3181,0.757,11111222 
TCOON,ioos:station:TCOON:013:1,2019-07-05T10:24:00Z,27.4847,-97.3181,0.756,11111222 
TCOON,ioos:station:TCOON:013:1,2019-07-05T11:24:00Z,27.4847,-97.3181,0.752,11111222 
TCOON,ioos:station:TCOON:013:1,2019-07-05T12:24:00Z,27.4847,-97.3181,0.751,11111222 
TCOON,ioos:station:TCOON:013:1,2019-07-05T13:24:00Z,27.4847,-97.3181,0.75,11111222 
TCOON,ioos:station:TCOON:013:1,2019-07-05T14:24:00Z,27.4847,-97.3181,0.748,11111222 
TCOON,ioos:station:TCOON:013:1,2019-07-05T15:24:00Z,27.4847,-97.3181,0.697,11111222 
TCOON,ioos:station:TCOON:013:1,2019-07-05T16:30:00Z,27.4847,-97.3181,0.753,11111222 
TCOON,ioos:station:TCOON:013:1,2019-07-05T17:30:00Z,27.4847,-97.3181,0.75,11111222 
TCOON,ioos:station:TCOON:013:1,2019-07-05T18:24:00Z,27.4847,-97.3181,0.752,11111222 
TCOON,ioos:station:TCOON:013:1,2019-07-05T19:30:00Z,27.4847,-97.3181,0.754,11111222 
TCOON,ioos:station:TCOON:013:1,2019-07-05T20:30:00Z,27.4847,-97.3181,0.761,11111222 
TCOON,ioos:station:TCOON:013:1,2019-07-05T21:30:00Z,27.4847,-97.3181,0.76,11111222 
TCOON,ioos:station:TCOON:013:1,2019-07-05T22:30:00Z,27.4847,-97.3181,0.762,11111222 
TCOON,ioos:station:TCOON:013:1,2019-07-05T23:24:00Z,27.4847,-97.3181,0.761,11111222 
TCOON,ioos:station:TCOON:013:1,2019-07-06T00:24:00Z,27.4847,-97.3181,0.762,11111222 
TCOON,ioos:station:TCOON:013:1,2019-07-06T01:24:00Z,27.4847,-97.3181,0.762,11111222 
TCOON,ioos:station:TCOON:013:1,2019-07-06T02:24:00Z,27.4847,-97.3181,0.764,11111222 
TCOON,ioos:station:TCOON:013:1,2019-07-06T03:24:00Z,27.4847,-97.3181,0.761,11111222 
TCOON,ioos:station:TCOON:013:1,2019-07-06T04:24:00Z,27.4847,-97.3181,0.761,11111222 
TCOON,ioos:station:TCOON:013:1,2019-07-06T05:24:00Z,27.4847,-97.3181,0.763,11111222 
TCOON,ioos:station:TCOON:013:1,2019-07-06T06:24:00Z,27.4847,-97.3181,0.76,11111222 
TCOON,ioos:station:TCOON:013:1,2019-07-06T07:24:00Z,27.4847,-97.3181,0.755,11111222 
TCOON,ioos:station:TCOON:013:1,2019-07-06T08:24:00Z,27.4847,-97.3181,0.752,11111222 
TCOON,ioos:station:TCOON:013:1,2019-07-06T09:24:00Z,27.4847,-97.3181,0.745,11111222 
TCOON,ioos:station:TCOON:013:1,2019-07-06T10:24:00Z,27.4847,-97.3181,0.74,11111222 
TCOON,ioos:station:TCOON:013:1,2019-07-06T11:24:00Z,27.4847,-97.3181,0.736,11111222 
TCOON,ioos:station:TCOON:013:1,2019-07-06T12:24:00Z,27.4847,-97.3181,0.732,11111222 
TCOON,ioos:station:TCOON:013:1,2019-07-06T13:24:00Z,27.4847,-97.3181,0.731,11111222 
TCOON,ioos:station:TCOON:013:1,2019-07-06T14:24:00Z,27.4847,-97.3181,0.73,11111222 
TCOON,ioos:station:TCOON:013:1,2019-07-06T15:24:00Z,27.4847,-97.3181,0.728,11111222 
TCOON,ioos:station:TCOON:013:1,2019-07-06T16:24:00Z,27.4847,-97.3181,0.726,11111222 
TCOON,ioos:station:TCOON:013:1,2019-07-06T17:30:00Z,27.4847,-97.3181,0.727,11111222 
TCOON,ioos:station:TCOON:013:1,2019-07-06T18:30:00Z,27.4847,-97.3181,0.733,11111222 
TCOON,ioos:station:TCOON:013:1,2019-07-06T19:24:00Z,27.4847,-97.3181,0.735,11111222 
TCOON,ioos:station:TCOON:013:1,2019-07-06T20:24:00Z,27.4847,-97.3181,0.737,11111222 
TCOON,ioos:station:TCOON:013:1,2019-07-06T21:24:00Z,27.4847,-97.3181,0.735,11111222 
TCOON,ioos:station:TCOON:013:1,2019-07-06T22:24:00Z,27.4847,-97.3181,0.736,11111222 
TCOON,ioos:station:TCOON:013:1,2019-07-06T23:24:00Z,27.4847,-97.3181,0.739,11111222 
TCOON,ioos:station:TCOON:013:1,2019-07-07T00:24:00Z,27.4847,-97.3181,0.742,11111222 
TCOON,ioos:station:TCOON:013:1,2019-07-07T01:24:00Z,27.4847,-97.3181,0.743,11111222 
TCOON,ioos:station:TCOON:013:1,2019-07-07T02:24:00Z,27.4847,-97.3181,0.748,11111222 
TCOON,ioos:station:TCOON:013:1,2019-07-07T03:24:00Z,27.4847,-97.3181,0.747,11111222 
TCOON,ioos:station:TCOON:013:1,2019-07-07T04:24:00Z,27.4847,-97.3181,0.749,11111222 
TCOON,ioos:station:TCOON:013:1,2019-07-07T05:24:00Z,27.4847,-97.3181,0.75,11111222 
TCOON,ioos:station:TCOON:013:1,2019-07-07T06:24:00Z,27.4847,-97.3181,0.746,11111222 
TCOON,ioos:station:TCOON:013:1,2019-07-07T07:24:00Z,27.4847,-97.3181,0.741,11111222 
TCOON,ioos:station:TCOON:013:1,2019-07-07T08:24:00Z,27.4847,-97.3181,0.735,11111222 
TCOON,ioos:station:TCOON:013:1,2019-07-07T09:24:00Z,27.4847,-97.3181,0.73,11111222 
TCOON,ioos:station:TCOON:013:1,2019-07-07T10:24:00Z,27.4847,-97.3181,0.727,11111222 
TCOON,ioos:station:TCOON:013:1,2019-07-07T11:24:00Z,27.4847,-97.3181,0.726,11111222 
TCOON,ioos:station:TCOON:013:1,2019-07-07T12:24:00Z,27.4847,-97.3181,0.725,11111222 
TCOON,ioos:station:TCOON:013:1,2019-07-07T13:24:00Z,27.4847,-97.3181,0.727,11111222 
TCOON,ioos:station:TCOON:013:1,2019-07-07T14:24:00Z,27.4847,-97.3181,0.727,11111222 
TCOON,ioos:station:TCOON:013:1,2019-07-07T15:30:00Z,27.4847,-97.3181,0.725,11111222 
TCOON,ioos:station:TCOON:013:1,2019-07-07T16:24:00Z,27.4847,-97.3181,0.726,11111222 
TCOON,ioos:station:TCOON:013:1,2019-07-07T17:24:00Z,27.4847,-97.3181,0.728,11111222 
TCOON,ioos:station:TCOON:013:1,2019-07-07T18:24:00Z,27.4847,-97.3181,0.731,11111222 
TCOON,ioos:station:TCOON:013:1,2019-07-07T19:30:00Z,27.4847,-97.3181,0.731,11111222 
TCOON,ioos:station:TCOON:013:1,2019-07-07T20:30:00Z,27.4847,-97.3181,0.739,11111222 
TCOON,ioos:station:TCOON:013:1,2019-07-07T21:30:00Z,27.4847,-97.3181,0.741,11111222 
TCOON,ioos:station:TCOON:013:1,2019-07-07T22:30:00Z,27.4847,-97.3181,0.742,11111222 
TCOON,ioos:station:TCOON:013:1,2019-07-07T23:24:00Z,27.4847,-97.3181,0.742,11111222 
TCOON,ioos:station:TCOON:013:1,2019-07-08T00:24:00Z,27.4847,-97.3181,0.746,11111222 
TCOON,ioos:station:TCOON:013:1,2019-07-08T01:24:00Z,27.4847,-97.3181,0.749,11111222 
TCOON,ioos:station:TCOON:013:1,2019-07-08T02:24:00Z,27.4847,-97.3181,0.749,11111222 
TCOON,ioos:station:TCOON:013:1,2019-07-08T03:24:00Z,27.4847,-97.3181,0.751,11111222 
TCOON,ioos:station:TCOON:013:1,2019-07-08T04:24:00Z,27.4847,-97.3181,0.751,11111222 
TCOON,ioos:station:TCOON:013:1,2019-07-08T05:24:00Z,27.4847,-97.3181,0.753,11111222 
TCOON,ioos:station:TCOON:013:1,2019-07-08T06:24:00Z,27.4847,-97.3181,0.752,11111222 
TCOON,ioos:station:TCOON:013:1,2019-07-08T07:24:00Z,27.4847,-97.3181,0.752,11111222 
TCOON,ioos:station:TCOON:013:1,2019-07-08T08:24:00Z,27.4847,-97.3181,0.751,11111222 
TCOON,ioos:station:TCOON:013:1,2019-07-08T09:24:00Z,27.4847,-97.3181,0.751,11111222 
TCOON,ioos:station:TCOON:013:1,2019-07-08T10:24:00Z,27.4847,-97.3181,0.749,11111222 
TCOON,ioos:station:TCOON:013:1,2019-07-08T11:24:00Z,27.4847,-97.3181,0.746,11111222 
TCOON,ioos:station:TCOON:013:1,2019-07-08T12:24:00Z,27.4847,-97.3181,0.744,11111222 
TCOON,ioos:station:TCOON:013:1,2019-07-08T13:30:00Z,27.4847,-97.3181,0.745,11111222 
TCOON,ioos:station:TCOON:013:1,2019-07-08T14:30:00Z,27.4847,-97.3181,0.743,11111222 
TCOON,ioos:station:TCOON:013:1,2019-07-08T15:30:00Z,27.4847,-97.3181,0.738,11111222 
TCOON,ioos:station:TCOON:013:1,2019-07-08T16:30:00Z,27.4847,-97.3181,0.738,11111222 
TCOON,ioos:station:TCOON:013:1,2019-07-08T17:36:00Z,27.4847,-97.3181,0.734,11111222 
TCOON,ioos:station:TCOON:013:1,2019-07-08T18:30:00Z,27.4847,-97.3181,0.73,11111222 
TCOON,ioos:station:TCOON:013:1,2019-07-08T19:30:00Z,27.4847,-97.3181,0.726,11111222 
TCOON,ioos:station:TCOON:013:1,2019-07-08T20:30:00Z,27.4847,-97.3181,0.723,11111222 
TCOON,ioos:station:TCOON:013:1,2019-07-08T21:30:00Z,27.4847,-97.3181,0.721,11111222 
TCOON,ioos:station:TCOON:013:1,2019-07-08T22:24:00Z,27.4847,-97.3181,0.717,11111222 
TCOON,ioos:station:TCOON:013:1,2019-07-08T23:24:00Z,27.4847,-97.3181,0.712,11111222 
TCOON,ioos:station:TCOON:013:1,2019-07-09T00:24:00Z,27.4847,-97.3181,0.717,11111222 
TCOON,ioos:station:TCOON:013:1,2019-07-09T01:24:00Z,27.4847,-97.3181,0.717,11111222 
TCOON,ioos:station:TCOON:013:1,2019-07-09T02:24:00Z,27.4847,-97.3181,0.715,11111222 
TCOON,ioos:station:TCOON:013:1,2019-07-09T03:24:00Z,27.4847,-97.3181,0.714,11111222 
TCOON,ioos:station:TCOON:013:1,2019-07-09T04:24:00Z,27.4847,-97.3181,0.714,11111222 
TCOON,ioos:station:TCOON:013:1,2019-07-09T05:24:00Z,27.4847,-97.3181,0.711,11111222 
TCOON,ioos:station:TCOON:013:1,2019-07-09T06:24:00Z,27.4847,-97.3181,0.711,11111222 
TCOON,ioos:station:TCOON:013:1,2019-07-09T07:24:00Z,27.4847,-97.3181,0.713,11111222 
TCOON,ioos:station:TCOON:013:1,2019-07-09T08:24:00Z,27.4847,-97.3181,0.713,11111222 
TCOON,ioos:station:TCOON:013:1,2019-07-09T09:24:00Z,27.4847,-97.3181,0.712,11111222 
TCOON,ioos:station:TCOON:013:1,2019-07-09T10:24:00Z,27.4847,-97.3181,0.71,11111222 
TCOON,ioos:station:TCOON:013:1,2019-07-09T11:24:00Z,27.4847,-97.3181,0.712,11111222 
TCOON,ioos:station:TCOON:013:1,2019-07-09T12:30:00Z,27.4847,-97.3181,0.709,11111222 
TCOON,ioos:station:TCOON:013:1,2019-07-09T13:30:00Z,27.4847,-97.3181,0.712,11111222 
TCOON,ioos:station:TCOON:013:1,2019-07-09T14:30:00Z,27.4847,-97.3181,0.715,11111222 
TCOON,ioos:station:TCOON:013:1,2019-07-09T15:24:00Z,27.4847,-97.3181,0.713,11111222 
TCOON,ioos:station:TCOON:013:1,2019-07-09T16:30:00Z,27.4847,-97.3181,0.713,11111222 
TCOON,ioos:station:TCOON:013:1,2019-07-09T17:30:00Z,27.4847,-97.3181,0.711,11111222 
TCOON,ioos:station:TCOON:013:1,2019-07-09T18:30:00Z,27.4847,-97.3181,0.707,11111222 
TCOON,ioos:station:TCOON:013:1,2019-07-09T19:30:00Z,27.4847,-97.3181,0.705,11111222 
TCOON,ioos:station:TCOON:013:1,2019-07-09T20:30:00Z,27.4847,-97.3181,0.7,11111222 
TCOON,ioos:station:TCOON:013:1,2019-07-09T21:30:00Z,27.4847,-97.3181,0.693,11111222 
TCOON,ioos:station:TCOON:013:1,2019-07-09T22:30:00Z,27.4847,-97.3181,0.688,11111222 
TCOON,ioos:station:TCOON:013:1,2019-07-09T23:24:00Z,27.4847,-97.3181,0.683,11111222 
TCOON,ioos:station:TCOON:013:1,2019-07-10T00:24:00Z,27.4847,-97.3181,0.678,11111222 
TCOON,ioos:station:TCOON:013:1,2019-07-10T01:24:00Z,27.4847,-97.3181,0.678,11111222 
TCOON,ioos:station:TCOON:013:1,2019-07-10T02:24:00Z,27.4847,-97.3181,0.675,11111222 
TCOON,ioos:station:TCOON:013:1,2019-07-10T03:24:00Z,27.4847,-97.3181,0.677,11111222 
TCOON,ioos:station:TCOON:013:1,2019-07-10T04:24:00Z,27.4847,-97.3181,0.675,11111222 
TCOON,ioos:station:TCOON:013:1,2019-07-10T05:24:00Z,27.4847,-97.3181,0.675,11111222 
TCOON,ioos:station:TCOON:013:1,2019-07-10T06:24:00Z,27.4847,-97.3181,0.677,11111222 
TCOON,ioos:station:TCOON:013:1,2019-07-10T07:24:00Z,27.4847,-97.3181,0.674,11111222 
TCOON,ioos:station:TCOON:013:1,2019-07-10T08:24:00Z,27.4847,-97.3181,0.675,11111222 
TCOON,ioos:station:TCOON:013:1,2019-07-10T09:24:00Z,27.4847,-97.3181,0.676,11111222 
TCOON,ioos:station:TCOON:013:1,2019-07-10T10:24:00Z,27.4847,-97.3181,0.678,11111222 
TCOON,ioos:station:TCOON:013:1,2019-07-10T11:24:00Z,27.4847,-97.3181,0.678,11111222 
TCOON,ioos:station:TCOON:013:1,2019-07-10T12:24:00Z,27.4847,-97.3181,0.678,11111222 
TCOON,ioos:station:TCOON:013:1,2019-07-10T13:24:00Z,27.4847,-97.3181,0.678,11111222 
TCOON,ioos:station:TCOON:013:1,2019-07-10T14:24:00Z,27.4847,-97.3181,0.678,11111222 
TCOON,ioos:station:TCOON:013:1,2019-07-10T15:30:00Z,27.4847,-97.3181,0.676,11111222 
TCOON,ioos:station:TCOON:013:1,2019-07-10T16:30:00Z,27.4847,-97.3181,0.677,11111222 
TCOON,ioos:station:TCOON:013:1,2019-07-10T17:30:00Z,27.4847,-97.3181,0.674,11111222 
TCOON,ioos:station:TCOON:013:1,2019-07-10T18:30:00Z,27.4847,-97.3181,0.674,11111222 
TCOON,ioos:station:TCOON:013:1,2019-07-10T19:30:00Z,27.4847,-97.3181,0.667,11111222 
TCOON,ioos:station:TCOON:013:1,2019-07-10T20:30:00Z,27.4847,-97.3181,0.663,11111222 
TCOON,ioos:station:TCOON:013:1,2019-07-10T21:30:00Z,27.4847,-97.3181,0.66,11111222 
TCOON,ioos:station:TCOON:013:1,2019-07-10T22:30:00Z,27.4847,-97.3181,0.652,11111222 
TCOON,ioos:station:TCOON:013:1,2019-07-10T23:24:00Z,27.4847,-97.3181,0.647,11111222 
TCOON,ioos:station:TCOON:013:1,2019-07-11T00:24:00Z,27.4847,-97.3181,0.645,11111222 
TCOON,ioos:station:TCOON:013:1,2019-07-11T01:24:00Z,27.4847,-97.3181,0.643,11111222 
TCOON,ioos:station:TCOON:013:1,2019-07-11T02:24:00Z,27.4847,-97.3181,0.641,11111222 
TCOON,ioos:station:TCOON:013:1,2019-07-11T03:24:00Z,27.4847,-97.3181,0.641,11111222 
TCOON,ioos:station:TCOON:013:1,2019-07-11T04:24:00Z,27.4847,-97.3181,0.64,11111222 
TCOON,ioos:station:TCOON:013:1,2019-07-11T05:24:00Z,27.4847,-97.3181,0.64,11111222 
TCOON,ioos:station:TCOON:013:1,2019-07-11T06:24:00Z,27.4847,-97.3181,0.642,11111222 
TCOON,ioos:station:TCOON:013:1,2019-07-11T07:24:00Z,27.4847,-97.3181,0.641,11111222 
TCOON,ioos:station:TCOON:013:1,2019-07-11T08:24:00Z,27.4847,-97.3181,0.642,11111222 
TCOON,ioos:station:TCOON:013:1,2019-07-11T09:24:00Z,27.4847,-97.3181,0.643,11111222 
TCOON,ioos:station:TCOON:013:1,2019-07-11T10:24:00Z,27.4847,-97.3181,0.646,11111222 
TCOON,ioos:station:TCOON:013:1,2019-07-11T11:24:00Z,27.4847,-97.3181,0.652,11111222 
TCOON,ioos:station:TCOON:013:1,2019-07-11T12:24:00Z,27.4847,-97.3181,0.658,11111222 
TCOON,ioos:station:TCOON:013:1,2019-07-11T13:30:00Z,27.4847,-97.3181,0.661,11111222 
TCOON,ioos:station:TCOON:013:1,2019-07-11T14:30:00Z,27.4847,-97.3181,0.672,11111222 
TCOON,ioos:station:TCOON:013:1,2019-07-11T15:30:00Z,27.4847,-97.3181,0.676,11111222 
TCOON,ioos:station:TCOON:013:1,2019-07-11T16:30:00Z,27.4847,-97.3181,0.681,11111222 
TCOON,ioos:station:TCOON:013:1,2019-07-11T17:30:00Z,27.4847,-97.3181,0.684,11111222 
TCOON,ioos:station:TCOON:013:1,2019-07-11T18:24:00Z,27.4847,-97.3181,0.683,11111222 
TCOON,ioos:station:TCOON:013:1,2019-07-11T19:30:00Z,27.4847,-97.3181,0.683,11111222 
TCOON,ioos:station:TCOON:013:1,2019-07-11T20:30:00Z,27.4847,-97.3181,0.681,11111222 
TCOON,ioos:station:TCOON:013:1,2019-07-11T21:30:00Z,27.4847,-97.3181,0.672,11111222 
TCOON,ioos:station:TCOON:013:1,2019-07-11T22:30:00Z,27.4847,-97.3181,0.662,11111222 
TCOON,ioos:station:TCOON:013:1,2019-07-11T23:24:00Z,27.4847,-97.3181,0.655,11111222 
TCOON,ioos:station:TCOON:013:1,2019-07-12T00:24:00Z,27.4847,-97.3181,0.646,11111222 
TCOON,ioos:station:TCOON:013:1,2019-07-12T01:24:00Z,27.4847,-97.3181,0.643,11111222 
TCOON,ioos:station:TCOON:013:1,2019-07-12T02:24:00Z,27.4847,-97.3181,0.639,11111222 
TCOON,ioos:station:TCOON:013:1,2019-07-12T03:24:00Z,27.4847,-97.3181,0.635,11111222 
TCOON,ioos:station:TCOON:013:1,2019-07-12T04:24:00Z,27.4847,-97.3181,0.634,11111222 
TCOON,ioos:station:TCOON:013:1,2019-07-12T05:24:00Z,27.4847,-97.3181,0.631,11111222 
TCOON,ioos:station:TCOON:013:1,2019-07-12T06:24:00Z,27.4847,-97.3181,0.632,11111222 
TCOON,ioos:station:TCOON:013:1,2019-07-12T07:24:00Z,27.4847,-97.3181,0.634,11111222 
TCOON,ioos:station:TCOON:013:1,2019-07-12T08:24:00Z,27.4847,-97.3181,0.635,11111222 
TCOON,ioos:station:TCOON:013:1,2019-07-12T09:24:00Z,27.4847,-97.3181,0.634,11111222 
TCOON,ioos:station:TCOON:013:1,2019-07-12T10:24:00Z,27.4847,-97.3181,0.637,11111222 
TCOON,ioos:station:TCOON:013:1,2019-07-12T11:24:00Z,27.4847,-97.3181,0.638,11111222 
TCOON,ioos:station:TCOON:013:1,2019-07-12T12:24:00Z,27.4847,-97.3181,0.649,11111222 
TCOON,ioos:station:TCOON:013:1,2019-07-12T13:24:00Z,27.4847,-97.3181,0.652,11111222 
TCOON,ioos:station:TCOON:013:1,2019-07-12T14:24:00Z,27.4847,-97.3181,0.656,11111222 
TCOON,ioos:station:TCOON:013:1,2019-07-12T15:30:00Z,27.4847,-97.3181,0.656,11111222 
TCOON,ioos:station:TCOON:013:1,2019-07-12T16:24:00Z,27.4847,-97.3181,0.663,11111222 
TCOON,ioos:station:TCOON:013:1,2019-07-12T17:24:00Z,27.4847,-97.3181,0.663,11111222 